contact:dominique.lefevre@mio.osupytheas.fr, maurice.libes@osupytheas.fr, didier.mallarino@osupytheas.fr
Project:EMSO http://www.emso-fr.org/EMSO-France
Depth: 2436.0 m
Title:EMSO Ligure Ouest : Data MII capteur CSTAR
DateTime,Latitude,Longitude,Instrument_Serial,Reference_Counts,Signal_Counts,Corrected_Signal_raw_counts,Calculated_Beam_c_inverse_meters,Internal_thermistor_counts
DateTime,Latitude,Longitude,Instrument_Serial,Reference_Counts,Signal_Counts,Corrected_Signal_raw_counts,Calculated_Beam_c_inverse_meters,Internal_thermistor_counts
2023-12-27T00:00:05,42.805,6.029,CST-1368DR,4075,4293,11161,01.343,553
2023-12-27T00:03:07,42.805,6.029,CST-1368DR,4075,4295,11166,01.342,553
2023-12-27T00:06:09,42.805,6.029,CST-1368DR,4075,4297,11170,01.340,553
2023-12-27T00:09:10,42.805,6.029,CST-1368DR,4075,4294,11162,01.343,553
2023-12-27T00:12:12,42.805,6.029,CST-1368DR,4075,4294,11163,01.343,553
2023-12-27T00:15:13,42.805,6.029,CST-1368DR,4075,4299,11176,01.338,553
2023-12-27T00:18:15,42.805,6.029,CST-1368DR,4075,4294,11163,01.343,553
2023-12-27T00:21:16,42.805,6.029,CST-1368DR,4075,4294,11163,01.343,553
2023-12-27T00:24:18,42.805,6.029,CST-1368DR,4075,4296,11169,01.341,553
2023-12-27T00:27:20,42.805,6.029,CST-1368DR,4075,4294,11164,01.342,553
2023-12-27T00:30:21,42.805,6.029,CST-1368DR,4075,4293,11159,01.344,553
2023-12-27T00:33:23,42.805,6.029,CST-1368DR,4075,4293,11161,01.343,553
2023-12-27T00:36:24,42.805,6.029,CST-1368DR,4075,4294,11163,01.343,553
2023-12-27T00:39:26,42.805,6.029,CST-1368DR,4075,4294,11162,01.343,553
2023-12-27T00:42:28,42.805,6.029,CST-1368DR,4075,4293,11161,01.343,553
2023-12-27T00:45:29,42.805,6.029,CST-1368DR,4075,4293,11160,01.344,553
2023-12-27T00:48:31,42.805,6.029,CST-1368DR,4075,4294,11162,01.343,553
2023-12-27T00:51:32,42.805,6.029,CST-1368DR,4075,4293,11160,01.344,553
2023-12-27T00:54:34,42.805,6.029,CST-1368DR,4075,4293,11161,01.343,553
2023-12-27T00:57:35,42.805,6.029,CST-1368DR,4075,4293,11161,01.343,553
2023-12-27T01:00:37,42.805,6.029,CST-1368DR,4075,4293,11160,01.344,553
2023-12-27T01:03:39,42.805,6.029,CST-1368DR,4075,4293,11161,01.343,553
2023-12-27T01:06:40,42.805,6.029,CST-1368DR,4075,4294,11162,01.343,553
2023-12-27T01:09:42,42.805,6.029,CST-1368DR,4075,4293,11161,01.343,553
2023-12-27T01:12:43,42.805,6.029,CST-1368DR,4075,4292,11157,01.345,553
2023-12-27T01:15:45,42.805,6.029,CST-1368DR,4075,4292,11157,01.345,553
2023-12-27T01:18:46,42.805,6.029,CST-1368DR,4075,4294,11162,01.343,553
2023-12-27T01:21:48,42.805,6.029,CST-1368DR,4075,4294,11163,01.343,553
2023-12-27T01:24:50,42.805,6.029,CST-1368DR,4075,4293,11160,01.344,553
2023-12-27T01:27:51,42.805,6.029,CST-1368DR,4075,4293,11159,01.344,553
2023-12-27T01:30:53,42.805,6.029,CST-1368DR,4075,4292,11158,01.345,553
2023-12-27T01:33:54,42.805,6.029,CST-1368DR,4075,4305,11191,01.333,553
2023-12-27T01:36:56,42.805,6.029,CST-1368DR,4075,4292,11158,01.345,553
2023-12-27T01:39:57,42.805,6.029,CST-1368DR,4075,4291,11156,01.345,553
2023-12-27T01:42:59,42.805,6.029,CST-1368DR,4075,4290,11154,01.346,553
2023-12-27T01:46:01,42.805,6.029,CST-1368DR,4075,4293,11160,01.344,553
2023-12-27T01:49:02,42.805,6.029,CST-1368DR,4075,4296,11169,01.341,553
2023-12-27T01:52:04,42.805,6.029,CST-1368DR,4075,4295,11165,01.342,553
2023-12-27T01:55:05,42.805,6.029,CST-1368DR,4075,4294,11164,01.342,553
2023-12-27T01:58:07,42.805,6.029,CST-1368DR,4075,4293,11160,01.344,553
2023-12-27T02:01:09,42.805,6.029,CST-1368DR,4075,4295,11166,01.342,553
2023-12-27T02:04:10,42.805,6.029,CST-1368DR,4075,4287,11145,01.349,553
2023-12-27T02:07:12,42.805,6.029,CST-1368DR,4075,4292,11158,01.345,553
2023-12-27T02:10:13,42.805,6.029,CST-1368DR,4075,4294,11163,01.343,553
2023-12-27T02:13:15,42.805,6.029,CST-1368DR,4075,4296,11169,01.341,553
2023-12-27T02:16:16,42.805,6.029,CST-1368DR,4075,4294,11163,01.343,553
2023-12-27T02:19:18,42.805,6.029,CST-1368DR,4075,4293,11161,01.343,553
2023-12-27T02:22:20,42.805,6.029,CST-1368DR,4075,4295,11165,01.342,553
2023-12-27T02:25:21,42.805,6.029,CST-1368DR,4075,4297,11170,01.340,553
2023-12-27T02:28:23,42.805,6.029,CST-1368DR,4075,4294,11163,01.343,553
2023-12-27T02:31:24,42.805,6.029,CST-1368DR,4075,4293,11161,01.343,553
2023-12-27T02:34:26,42.805,6.029,CST-1368DR,4075,4293,11161,01.343,553
2023-12-27T02:37:28,42.805,6.029,CST-1368DR,4075,4295,11165,01.342,553
2023-12-27T02:40:29,42.805,6.029,CST-1368DR,4075,4293,11160,01.344,553
2023-12-27T02:43:31,42.805,6.029,CST-1368DR,4075,4293,11160,01.344,553
2023-12-27T02:46:32,42.805,6.029,CST-1368DR,4075,4292,11157,01.345,553
2023-12-27T02:49:34,42.805,6.029,CST-1368DR,4075,4294,11163,01.343,553
2023-12-27T02:52:35,42.805,6.029,CST-1368DR,4075,4290,11152,01.347,553
2023-12-27T02:55:37,42.805,6.029,CST-1368DR,4075,4293,11160,01.344,553
2023-12-27T02:58:39,42.805,6.029,CST-1368DR,4075,4293,11161,01.343,553
2023-12-27T03:01:40,42.805,6.029,CST-1368DR,4075,4294,11162,01.343,553
2023-12-27T03:04:42,42.805,6.029,CST-1368DR,4075,4293,11161,01.343,553
2023-12-27T03:07:43,42.805,6.029,CST-1368DR,4075,4293,11161,01.343,553
2023-12-27T03:10:45,42.805,6.029,CST-1368DR,4075,4293,11161,01.343,553
2023-12-27T03:13:46,42.805,6.029,CST-1368DR,4075,4293,11159,01.344,553
2023-12-27T03:16:48,42.805,6.029,CST-1368DR,4075,4292,11158,01.345,553
2023-12-27T03:19:50,42.805,6.029,CST-1368DR,4075,4293,11161,01.343,553
2023-12-27T03:22:51,42.805,6.029,CST-1368DR,4075,4293,11161,01.343,553
2023-12-27T03:25:53,42.805,6.029,CST-1368DR,4075,4292,11157,01.345,553
2023-12-27T03:28:54,42.805,6.029,CST-1368DR,4075,4292,11158,01.345,553
2023-12-27T03:31:56,42.805,6.029,CST-1368DR,4075,4293,11161,01.343,553
2023-12-27T03:34:58,42.805,6.029,CST-1368DR,4075,4294,11162,01.343,553
2023-12-27T03:37:59,42.805,6.029,CST-1368DR,4075,4293,11159,01.344,553
2023-12-27T03:41:01,42.805,6.029,CST-1368DR,4075,4293,11161,01.343,553
2023-12-27T03:44:02,42.805,6.029,CST-1368DR,4075,4294,11162,01.343,553
2023-12-27T03:47:04,42.805,6.029,CST-1368DR,4075,4294,11163,01.343,553
2023-12-27T03:50:05,42.805,6.029,CST-1368DR,4075,4293,11161,01.343,553
2023-12-27T03:53:07,42.805,6.029,CST-1368DR,4075,4294,11162,01.343,553
2023-12-27T03:56:09,42.805,6.029,CST-1368DR,4075,4292,11157,01.345,553
2023-12-27T03:59:10,42.805,6.029,CST-1368DR,4075,4292,11158,01.345,553
2023-12-27T04:02:12,42.805,6.029,CST-1368DR,4075,4293,11159,01.344,553
2023-12-27T04:05:13,42.805,6.029,CST-1368DR,4075,4293,11160,01.344,553
2023-12-27T04:08:15,42.805,6.029,CST-1368DR,4075,4293,11159,01.344,553
2023-12-27T04:11:16,42.805,6.029,CST-1368DR,4075,4292,11158,01.345,553
2023-12-27T04:14:18,42.805,6.029,CST-1368DR,4075,4293,11161,01.343,553
2023-12-27T04:17:20,42.805,6.029,CST-1368DR,4075,4290,11152,01.347,553
2023-12-27T04:20:21,42.805,6.029,CST-1368DR,4075,4293,11159,01.344,553
2023-12-27T04:23:23,42.805,6.029,CST-1368DR,4075,4292,11157,01.345,553
2023-12-27T04:26:24,42.805,6.029,CST-1368DR,4075,4293,11161,01.343,553
2023-12-27T04:29:26,42.805,6.029,CST-1368DR,4075,4294,11163,01.343,553
2023-12-27T04:32:28,42.805,6.029,CST-1368DR,4075,4293,11160,01.344,553
2023-12-27T04:35:29,42.805,6.029,CST-1368DR,4075,4294,11162,01.343,553
2023-12-27T04:38:31,42.805,6.029,CST-1368DR,4075,4293,11161,01.343,553
2023-12-27T04:41:32,42.805,6.029,CST-1368DR,4075,4293,11161,01.343,553
2023-12-27T04:44:34,42.805,6.029,CST-1368DR,4075,4293,11160,01.344,553
2023-12-27T04:47:35,42.805,6.029,CST-1368DR,4075,4292,11157,01.345,553
2023-12-27T04:50:37,42.805,6.029,CST-1368DR,4075,4292,11157,01.345,553
2023-12-27T04:53:39,42.805,6.029,CST-1368DR,4075,4291,11156,01.345,553
2023-12-27T04:56:40,42.805,6.029,CST-1368DR,4075,4291,11156,01.345,553
2023-12-27T04:59:42,42.805,6.029,CST-1368DR,4075,4292,11157,01.345,553
2023-12-27T05:02:43,42.805,6.029,CST-1368DR,4075,4296,11169,01.341,553
2023-12-27T05:05:45,42.805,6.029,CST-1368DR,4075,4293,11160,01.344,553
2023-12-27T05:08:46,42.805,6.029,CST-1368DR,4075,4291,11154,01.346,553
2023-12-27T05:11:48,42.805,6.029,CST-1368DR,4075,4290,11154,01.346,553
2023-12-27T05:14:50,42.805,6.029,CST-1368DR,4075,4292,11157,01.345,553
2023-12-27T05:17:51,42.805,6.029,CST-1368DR,4075,4291,11156,01.345,553
2023-12-27T05:20:53,42.805,6.029,CST-1368DR,4075,4292,11158,01.345,553
2023-12-27T05:23:54,42.805,6.029,CST-1368DR,4075,4292,11157,01.345,553
2023-12-27T05:26:56,42.805,6.029,CST-1368DR,4075,4289,11150,01.347,553
2023-12-27T05:29:58,42.805,6.029,CST-1368DR,4075,4291,11155,01.346,553
2023-12-27T05:33:01,42.805,6.029,CST-1368DR,4075,4290,11152,01.347,553
2023-12-27T05:36:02,42.805,6.029,CST-1368DR,4075,4289,11149,01.348,553
2023-12-27T05:39:04,42.805,6.029,CST-1368DR,4075,4292,11158,01.345,553
2023-12-27T05:42:05,42.805,6.029,CST-1368DR,4075,4290,11153,01.346,553
2023-12-27T05:45:07,42.805,6.029,CST-1368DR,4075,4291,11156,01.345,553
2023-12-27T05:48:08,42.805,6.029,CST-1368DR,4075,4291,11154,01.346,553
2023-12-27T05:51:10,42.805,6.029,CST-1368DR,4075,4290,11152,01.347,553
2023-12-27T05:54:12,42.805,6.029,CST-1368DR,4075,4291,11155,01.346,553
2023-12-27T05:57:13,42.805,6.029,CST-1368DR,4075,4291,11156,01.345,553
2023-12-27T06:00:15,42.805,6.029,CST-1368DR,4075,4290,11152,01.347,553
2023-12-27T06:03:16,42.805,6.029,CST-1368DR,4075,4290,11153,01.346,553
2023-12-27T06:06:18,42.805,6.029,CST-1368DR,4075,4293,11160,01.344,553
2023-12-27T06:09:19,42.805,6.029,CST-1368DR,4075,4291,11155,01.346,553
2023-12-27T06:12:21,42.805,6.029,CST-1368DR,4075,4292,11158,01.345,553
2023-12-27T06:15:23,42.805,6.029,CST-1368DR,4075,4290,11154,01.346,553
2023-12-27T06:18:24,42.805,6.029,CST-1368DR,4075,4291,11154,01.346,553
2023-12-27T06:21:26,42.805,6.029,CST-1368DR,4075,4291,11156,01.345,553
2023-12-27T06:24:27,42.805,6.029,CST-1368DR,4075,4291,11155,01.346,553
2023-12-27T06:27:29,42.805,6.029,CST-1368DR,4075,4291,11155,01.346,553
2023-12-27T06:30:31,42.805,6.029,CST-1368DR,4075,4291,11156,01.345,553
2023-12-27T06:33:32,42.805,6.029,CST-1368DR,4075,4293,11159,01.344,553
2023-12-27T06:36:34,42.805,6.029,CST-1368DR,4075,4290,11154,01.346,553
2023-12-27T06:39:35,42.805,6.029,CST-1368DR,4075,4294,11163,01.343,553
2023-12-27T06:42:37,42.805,6.029,CST-1368DR,4075,4288,11147,01.349,553
2023-12-27T06:45:38,42.805,6.029,CST-1368DR,4075,4291,11155,01.346,553
2023-12-27T06:48:40,42.805,6.029,CST-1368DR,4075,4291,11156,01.345,553
2023-12-27T06:51:42,42.805,6.029,CST-1368DR,4075,4290,11152,01.347,553
2023-12-27T06:54:43,42.805,6.029,CST-1368DR,4075,4281,11130,01.355,553
2023-12-27T06:57:45,42.805,6.029,CST-1368DR,4075,4288,11147,01.349,553
2023-12-27T07:00:46,42.805,6.029,CST-1368DR,4075,4256,11064,01.378,553
2023-12-27T07:03:48,42.805,6.029,CST-1368DR,4075,4290,11152,01.347,553
2023-12-27T07:06:49,42.805,6.029,CST-1368DR,4075,4296,11169,01.341,553
2023-12-27T07:09:51,42.805,6.029,CST-1368DR,4075,4284,11137,01.352,553
2023-12-27T07:12:53,42.805,6.029,CST-1368DR,4075,4263,11083,01.372,553
2023-12-27T07:15:54,42.805,6.029,CST-1368DR,4075,4289,11149,01.348,553
2023-12-27T07:18:56,42.805,6.029,CST-1368DR,4075,4267,11092,01.368,553
2023-12-27T07:21:57,42.805,6.029,CST-1368DR,4075,4266,11091,01.369,553
2023-12-27T07:24:59,42.805,6.029,CST-1368DR,4075,4265,11087,01.370,553
2023-12-27T07:28:01,42.805,6.029,CST-1368DR,4075,4265,11087,01.370,553
2023-12-27T07:31:04,42.805,6.029,CST-1368DR,4075,4264,11085,01.371,553
2023-12-27T07:34:05,42.805,6.029,CST-1368DR,4075,4265,11087,01.370,553
2023-12-27T07:37:07,42.805,6.029,CST-1368DR,4075,4263,11083,01.372,553
2023-12-27T07:40:08,42.805,6.029,CST-1368DR,4075,4291,11156,01.345,553
2023-12-27T07:43:10,42.805,6.029,CST-1368DR,4075,4284,11137,01.352,553
2023-12-27T07:46:12,42.805,6.029,CST-1368DR,4075,4286,11143,01.350,553
2023-12-27T07:49:13,42.805,6.029,CST-1368DR,4075,4285,11141,01.351,553
2023-12-27T07:52:15,42.805,6.029,CST-1368DR,4075,4284,11137,01.352,553
2023-12-27T07:55:16,42.805,6.029,CST-1368DR,4075,4285,11139,01.351,553
2023-12-27T07:58:18,42.805,6.029,CST-1368DR,4075,4290,11154,01.346,553
2023-12-27T08:01:19,42.805,6.029,CST-1368DR,4075,4288,11147,01.349,553
2023-12-27T08:04:21,42.805,6.029,CST-1368DR,4075,4299,11175,01.338,553
2023-12-27T08:07:23,42.805,6.029,CST-1368DR,4075,4295,11166,01.342,553
2023-12-27T08:10:24,42.805,6.029,CST-1368DR,4075,4297,11170,01.340,553
2023-12-27T08:13:26,42.805,6.029,CST-1368DR,4075,4295,11165,01.342,553
2023-12-27T08:16:27,42.805,6.029,CST-1368DR,4075,4296,11169,01.341,553
2023-12-27T08:19:29,42.805,6.029,CST-1368DR,4075,4298,11172,01.340,553
2023-12-27T08:22:31,42.805,6.029,CST-1368DR,4075,4298,11172,01.340,553
2023-12-27T08:25:32,42.805,6.029,CST-1368DR,4075,4297,11170,01.340,553
2023-12-27T08:28:34,42.805,6.029,CST-1368DR,4075,4297,11171,01.340,553
2023-12-27T08:31:35,42.805,6.029,CST-1368DR,4075,4296,11169,01.341,553
2023-12-27T08:34:37,42.805,6.029,CST-1368DR,4075,4297,11170,01.340,553
2023-12-27T08:37:38,42.805,6.029,CST-1368DR,4075,4296,11167,01.341,553
2023-12-27T08:40:40,42.805,6.029,CST-1368DR,4075,4294,11164,01.342,553
2023-12-27T08:43:42,42.805,6.029,CST-1368DR,4075,4296,11169,01.341,553
2023-12-27T08:46:43,42.805,6.029,CST-1368DR,4075,4295,11166,01.342,553
2023-12-27T08:49:45,42.805,6.029,CST-1368DR,4075,4300,11178,01.337,553
2023-12-27T08:52:46,42.805,6.029,CST-1368DR,4075,4297,11170,01.340,553
2023-12-27T08:55:48,42.805,6.029,CST-1368DR,4075,4296,11169,01.341,553
2023-12-27T08:58:49,42.805,6.029,CST-1368DR,4075,4294,11162,01.343,553
2023-12-27T09:01:51,42.805,6.029,CST-1368DR,4075,4295,11165,01.342,553
2023-12-27T09:04:53,42.805,6.029,CST-1368DR,4075,4295,11167,01.341,553
2023-12-27T09:07:54,42.805,6.029,CST-1368DR,4075,4295,11166,01.342,553
2023-12-27T09:10:56,42.805,6.029,CST-1368DR,4075,4297,11170,01.340,553
2023-12-27T09:13:57,42.805,6.029,CST-1368DR,4075,4296,11169,01.341,553
2023-12-27T09:16:59,42.805,6.029,CST-1368DR,4075,4296,11169,01.341,553
2023-12-27T09:20:01,42.805,6.029,CST-1368DR,4075,4296,11169,01.341,553
2023-12-27T09:23:02,42.805,6.029,CST-1368DR,4075,4296,11169,01.341,553
2023-12-27T09:26:04,42.805,6.029,CST-1368DR,4075,4296,11169,01.341,553
2023-12-27T09:29:05,42.805,6.029,CST-1368DR,4075,4295,11166,01.342,553
2023-12-27T09:32:07,42.805,6.029,CST-1368DR,4075,4298,11172,01.340,553
2023-12-27T09:35:09,42.805,6.029,CST-1368DR,4075,4296,11167,01.341,553
2023-12-27T09:38:10,42.805,6.029,CST-1368DR,4075,4296,11169,01.341,553
2023-12-27T09:41:12,42.805,6.029,CST-1368DR,4075,4297,11170,01.340,553
2023-12-27T09:44:13,42.805,6.029,CST-1368DR,4075,4297,11170,01.340,553
2023-12-27T09:47:15,42.805,6.029,CST-1368DR,4075,4296,11167,01.341,553
2023-12-27T09:50:16,42.805,6.029,CST-1368DR,4075,4294,11163,01.343,553
2023-12-27T09:53:18,42.805,6.029,CST-1368DR,4075,4295,11165,01.342,553
2023-12-27T09:56:20,42.805,6.029,CST-1368DR,4075,4296,11169,01.341,553
2023-12-27T09:59:21,42.805,6.029,CST-1368DR,4075,4295,11166,01.342,553
2023-12-27T10:02:23,42.805,6.029,CST-1368DR,4075,4295,11165,01.342,553
2023-12-27T10:05:24,42.805,6.029,CST-1368DR,4075,4294,11163,01.343,553
2023-12-27T10:08:26,42.805,6.029,CST-1368DR,4075,4296,11167,01.341,553
2023-12-27T10:11:27,42.805,6.029,CST-1368DR,4075,4292,11158,01.345,553
2023-12-27T10:14:29,42.805,6.029,CST-1368DR,4075,4297,11172,01.340,553
2023-12-27T10:17:31,42.805,6.029,CST-1368DR,4075,4293,11160,01.344,553
2023-12-27T10:20:32,42.805,6.029,CST-1368DR,4075,4297,11172,01.340,553
2023-12-27T10:23:34,42.805,6.029,CST-1368DR,4075,4295,11166,01.342,553
2023-12-27T10:26:35,42.805,6.029,CST-1368DR,4075,4296,11167,01.341,553
2023-12-27T10:29:37,42.805,6.029,CST-1368DR,4075,4296,11169,01.341,553
2023-12-27T10:32:39,42.805,6.029,CST-1368DR,4075,4297,11171,01.340,553
2023-12-27T10:35:40,42.805,6.029,CST-1368DR,4075,4295,11165,01.342,553
2023-12-27T10:38:42,42.805,6.029,CST-1368DR,4075,4296,11169,01.341,553
2023-12-27T10:41:43,42.805,6.029,CST-1368DR,4075,4295,11166,01.342,553
2023-12-27T10:44:45,42.805,6.029,CST-1368DR,4075,4296,11169,01.341,553
2023-12-27T10:47:46,42.805,6.029,CST-1368DR,4075,4298,11172,01.340,553
2023-12-27T10:50:48,42.805,6.029,CST-1368DR,4075,4297,11171,01.340,553
2023-12-27T10:53:50,42.805,6.029,CST-1368DR,4075,4295,11165,01.342,553
2023-12-27T10:56:51,42.805,6.029,CST-1368DR,4075,4297,11172,01.340,553
2023-12-27T10:59:53,42.805,6.029,CST-1368DR,4075,4299,11175,01.338,553
2023-12-27T11:02:54,42.805,6.029,CST-1368DR,4075,4295,11166,01.342,553
2023-12-27T11:05:56,42.805,6.029,CST-1368DR,4075,4294,11164,01.342,553
2023-12-27T11:08:57,42.805,6.029,CST-1368DR,4075,4296,11167,01.341,553
2023-12-27T11:11:59,42.805,6.029,CST-1368DR,4075,4299,11175,01.338,553
2023-12-27T11:15:01,42.805,6.029,CST-1368DR,4075,4295,11167,01.341,553
2023-12-27T11:18:02,42.805,6.029,CST-1368DR,4075,4293,11159,01.344,553
2023-12-27T11:21:04,42.805,6.029,CST-1368DR,4075,4295,11167,01.341,553
2023-12-27T11:24:05,42.805,6.029,CST-1368DR,4075,4295,11165,01.342,553
2023-12-27T11:27:07,42.805,6.029,CST-1368DR,4075,4297,11171,01.340,553
2023-12-27T11:30:09,42.805,6.029,CST-1368DR,4075,4296,11167,01.341,553
2023-12-27T11:33:10,42.805,6.029,CST-1368DR,4075,4298,11173,01.339,553
2023-12-27T11:36:12,42.805,6.029,CST-1368DR,4075,4297,11171,01.340,553
2023-12-27T11:39:13,42.805,6.029,CST-1368DR,4075,4298,11174,01.339,553
2023-12-27T11:42:15,42.805,6.029,CST-1368DR,4075,4297,11170,01.340,553
2023-12-27T11:45:16,42.805,6.029,CST-1368DR,4075,4295,11167,01.341,553
2023-12-27T11:48:18,42.805,6.029,CST-1368DR,4075,4297,11171,01.340,553
2023-12-27T11:51:20,42.805,6.029,CST-1368DR,4075,4298,11174,01.339,553
2023-12-27T11:54:21,42.805,6.029,CST-1368DR,4075,4289,11150,01.347,553
2023-12-27T11:57:23,42.805,6.029,CST-1368DR,4075,4296,11169,01.341,553
2023-12-27T12:00:24,42.805,6.029,CST-1368DR,4075,4295,11166,01.342,553
2023-12-27T12:03:26,42.805,6.029,CST-1368DR,4075,4298,11172,01.340,553
2023-12-27T12:06:27,42.805,6.029,CST-1368DR,4075,4297,11170,01.340,553
2023-12-27T12:09:29,42.805,6.029,CST-1368DR,4075,4297,11170,01.340,553
2023-12-27T12:12:31,42.805,6.029,CST-1368DR,4075,4296,11169,01.341,553
2023-12-27T12:15:32,42.805,6.029,CST-1368DR,4075,4297,11170,01.340,553
2023-12-27T12:18:34,42.805,6.029,CST-1368DR,4075,4296,11169,01.341,553
2023-12-27T12:21:35,42.805,6.029,CST-1368DR,4075,4297,11170,01.340,553
2023-12-27T12:24:37,42.805,6.029,CST-1368DR,4075,4295,11165,01.342,553
2023-12-27T12:27:39,42.805,6.029,CST-1368DR,4075,4298,11173,01.339,553
2023-12-27T12:30:40,42.805,6.029,CST-1368DR,4075,4296,11169,01.341,553
2023-12-27T12:33:42,42.805,6.029,CST-1368DR,4075,4297,11170,01.340,553
2023-12-27T12:36:43,42.805,6.029,CST-1368DR,4075,4297,11171,01.340,553
2023-12-27T12:39:45,42.805,6.029,CST-1368DR,4075,4296,11169,01.341,553
2023-12-27T12:42:46,42.805,6.029,CST-1368DR,4075,4299,11176,01.338,553
2023-12-27T12:45:48,42.805,6.029,CST-1368DR,4075,4296,11167,01.341,553
2023-12-27T12:48:50,42.805,6.029,CST-1368DR,4075,4296,11169,01.341,553
2023-12-27T12:51:51,42.805,6.029,CST-1368DR,4075,4296,11169,01.341,553
2023-12-27T12:54:53,42.805,6.029,CST-1368DR,4075,4295,11165,01.342,553
2023-12-27T12:57:54,42.805,6.029,CST-1368DR,4075,4295,11165,01.342,553
2023-12-27T13:00:56,42.805,6.029,CST-1368DR,4075,4295,11166,01.342,553
2023-12-27T13:03:57,42.805,6.029,CST-1368DR,4075,4297,11170,01.340,553
2023-12-27T13:06:59,42.805,6.029,CST-1368DR,4075,4295,11165,01.342,553
2023-12-27T13:10:01,42.805,6.029,CST-1368DR,4075,4295,11165,01.342,553
2023-12-27T13:13:02,42.805,6.029,CST-1368DR,4075,4295,11166,01.342,553
2023-12-27T13:16:04,42.805,6.029,CST-1368DR,4075,4295,11166,01.342,553
2023-12-27T13:19:05,42.805,6.029,CST-1368DR,4075,4295,11165,01.342,553
2023-12-27T13:22:07,42.805,6.029,CST-1368DR,4075,4295,11166,01.342,553
2023-12-27T13:25:08,42.805,6.029,CST-1368DR,4075,4295,11167,01.341,553
2023-12-27T13:28:10,42.805,6.029,CST-1368DR,4075,4295,11167,01.341,553
2023-12-27T13:31:14,42.805,6.029,CST-1368DR,4075,4295,11166,01.342,553
2023-12-27T13:34:16,42.805,6.029,CST-1368DR,4075,4295,11166,01.342,553
2023-12-27T13:37:18,42.805,6.029,CST-1368DR,4075,4295,11165,01.342,553
2023-12-27T13:40:19,42.805,6.029,CST-1368DR,4075,4295,11166,01.342,553
2023-12-27T13:43:21,42.805,6.029,CST-1368DR,4075,4293,11161,01.343,553
2023-12-27T13:46:22,42.805,6.029,CST-1368DR,4075,4294,11162,01.343,553
2023-12-27T13:49:24,42.805,6.029,CST-1368DR,4075,4293,11161,01.343,553
2023-12-27T13:52:26,42.805,6.029,CST-1368DR,4075,4294,11164,01.342,553
2023-12-27T13:55:27,42.805,6.029,CST-1368DR,4075,4294,11163,01.343,553
2023-12-27T13:58:29,42.805,6.029,CST-1368DR,4075,4293,11160,01.344,553
2023-12-27T14:01:30,42.805,6.029,CST-1368DR,4075,4294,11162,01.343,553
2023-12-27T14:04:32,42.805,6.029,CST-1368DR,4075,4294,11164,01.342,553
2023-12-27T14:07:33,42.805,6.029,CST-1368DR,4075,4295,11166,01.342,553
2023-12-27T14:10:35,42.805,6.029,CST-1368DR,4075,4294,11163,01.343,553
2023-12-27T14:13:37,42.805,6.029,CST-1368DR,4075,4294,11163,01.343,553
2023-12-27T14:16:38,42.805,6.029,CST-1368DR,4075,4295,11166,01.342,553
2023-12-27T14:19:40,42.805,6.029,CST-1368DR,4075,4293,11161,01.343,553
2023-12-27T14:22:41,42.805,6.029,CST-1368DR,4075,4294,11163,01.343,553
2023-12-27T14:25:43,42.805,6.029,CST-1368DR,4075,4294,11162,01.343,553
2023-12-27T14:28:44,42.805,6.029,CST-1368DR,4075,4293,11161,01.343,553
2023-12-27T14:31:46,42.805,6.029,CST-1368DR,4075,4293,11159,01.344,553
2023-12-27T14:34:48,42.805,6.029,CST-1368DR,4075,4293,11161,01.343,553
2023-12-27T14:37:49,42.805,6.029,CST-1368DR,4075,4293,11160,01.344,553
2023-12-27T14:40:51,42.805,6.029,CST-1368DR,4075,4292,11157,01.345,553
2023-12-27T14:43:52,42.805,6.029,CST-1368DR,4075,4293,11161,01.343,553
2023-12-27T14:46:54,42.805,6.029,CST-1368DR,4075,4294,11162,01.343,553
2023-12-27T14:49:56,42.805,6.029,CST-1368DR,4075,4293,11161,01.343,553
2023-12-27T14:52:57,42.805,6.029,CST-1368DR,4075,4293,11161,01.343,553
2023-12-27T14:55:59,42.805,6.029,CST-1368DR,4075,4293,11159,01.344,553
2023-12-27T14:59:00,42.805,6.029,CST-1368DR,4075,4294,11162,01.343,553
2023-12-27T15:02:02,42.805,6.029,CST-1368DR,4075,4293,11161,01.343,553
2023-12-27T15:05:03,42.805,6.029,CST-1368DR,4075,4293,11161,01.343,553
2023-12-27T15:08:05,42.805,6.029,CST-1368DR,4075,4293,11161,01.343,553
2023-12-27T15:11:07,42.805,6.029,CST-1368DR,4075,4292,11158,01.345,553
2023-12-27T15:14:08,42.805,6.029,CST-1368DR,4075,4292,11157,01.345,553
2023-12-27T15:17:10,42.805,6.029,CST-1368DR,4075,4292,11158,01.345,553
2023-12-27T15:20:11,42.805,6.029,CST-1368DR,4075,4292,11158,01.345,553
2023-12-27T15:23:13,42.805,6.029,CST-1368DR,4075,4291,11156,01.345,553
2023-12-27T15:26:14,42.805,6.029,CST-1368DR,4075,4291,11155,01.346,553
2023-12-27T15:29:16,42.805,6.029,CST-1368DR,4075,4290,11152,01.347,553
2023-12-27T15:32:18,42.805,6.029,CST-1368DR,4075,4291,11156,01.345,553
2023-12-27T15:35:19,42.805,6.029,CST-1368DR,4075,4289,11151,01.347,553
2023-12-27T15:38:21,42.805,6.029,CST-1368DR,4075,4290,11152,01.347,553
2023-12-27T15:41:23,42.805,6.029,CST-1368DR,4075,4291,11155,01.346,553
2023-12-27T15:44:24,42.805,6.029,CST-1368DR,4075,4287,11144,01.350,553
2023-12-27T15:47:26,42.805,6.029,CST-1368DR,4075,4290,11152,01.347,553
2023-12-27T15:50:27,42.805,6.029,CST-1368DR,4075,4290,11153,01.346,553
2023-12-27T15:53:29,42.805,6.029,CST-1368DR,4075,4290,11153,01.346,553
2023-12-27T15:56:30,42.805,6.029,CST-1368DR,4075,4293,11160,01.344,553
2023-12-27T15:59:32,42.805,6.029,CST-1368DR,4075,4290,11152,01.347,553
2023-12-27T16:02:34,42.805,6.029,CST-1368DR,4075,4292,11157,01.345,553
2023-12-27T16:05:35,42.805,6.029,CST-1368DR,4075,4292,11158,01.345,553
2023-12-27T16:08:37,42.805,6.029,CST-1368DR,4075,4292,11157,01.345,553
2023-12-27T16:11:38,42.805,6.029,CST-1368DR,4075,4291,11156,01.345,553
2023-12-27T16:14:40,42.805,6.029,CST-1368DR,4075,4292,11157,01.345,553
2023-12-27T16:17:41,42.805,6.029,CST-1368DR,4075,4293,11161,01.343,553
2023-12-27T16:20:43,42.805,6.029,CST-1368DR,4075,4290,11154,01.346,553
2023-12-27T16:23:45,42.805,6.029,CST-1368DR,4075,4292,11157,01.345,553
2023-12-27T16:26:46,42.805,6.029,CST-1368DR,4075,4293,11159,01.344,553
2023-12-27T16:29:48,42.805,6.029,CST-1368DR,4075,4294,11162,01.343,553
2023-12-27T16:32:49,42.805,6.029,CST-1368DR,4075,4294,11163,01.343,553
2023-12-27T16:35:51,42.805,6.029,CST-1368DR,4075,4292,11158,01.345,553